Powrót do katalogu

GIOVE-B

AktywnyNawigacjaMEO
NORAD 32781·PAYLOAD·🇪🇺 EU

Wystrzelony Apr 27, 2008 z Baikonur Cosmodrome

Loading…

Następne Przeloty (najbliższe 24 godziny)

TLE

ŚwieżeSource: Space-Track

Epoka: Sep 11, 2026, 15:40 UTC

1 32781U 08020A   26254.65338624 -.00000071  00000-0  00000-0 0  9996
2 32781  60.0734  35.9481 0003055 251.9264 108.0248  1.65405067111870

Śledź GIOVE-B w czasie rzeczywistym z AllMySat

Download on the App Store